User: anonymous   Login
Location: Tierra del Sol
(32.6128°N, 116.3319°W)
Time: 13:31:39
(UTC-08:00)
Language:

Tiangong 2 - Orbit

View from above orbital plane
View from above orbital plane
View from above satellite
View from above satellite

Ground track
Ground track

The orbit data is extracted from the following two-line orbital elements,

1 41765U 16057A   18048.49709491  .00003821  00000-0  49826-4 0  9993
2 41765  42.7862 336.3135 0002565 166.7378 168.3999 15.60383166 81276
Epoch (UTC): 17 February 2018 11:55:49
Eccentricity: 0.0002565
inclination: 42.7862°
perigee height: 385 km
apogee height: 388 km
right ascension of ascending node: 336.3135°
argument of perigee: 166.7378°
revolutions per day: 15.60383166
mean anomaly at epoch: 168.3999°
orbit number at epoch: 8127

The dashed part of the orbit path shows where the satellite is in the earth's shadow,  

DLR